GSAT0220 (GALILEO 24)

Last updated on Tue Oct 21 2025 00:02:35 GMT+0000 (Coordinated Universal Time)

1 43567U 18060D 25292.63986126 -.00000094 00000+0 00000+0 0 9993 2 43567 57.2426 348.2850 0004992 270.8351 89.1726 1.70476187 45073
UTC large
Height (km)
Speed (km/s)
/
Latitude / Longitude
Inclination (degrees)
Orbital Period (minutes)
Azimuth
Elevation
Range (km)
Doppler Factor

Next 0 passes for location: London (51.5072 / 0.1276)

Sorry there are no passes over London.